| time (UTC) | temp F | wind direction | speed MPH | gust MPH | rain 1hr in | rain 24hr in | rain mn in | humidity % | barometer mb |
| 20260903175951 | 78 | 92 | 17.0 | 23.0 | 0.00 | 0.26 | 0.01 | 80 | 1015.6 |
| 20260903175451 | 78 | 92 | 8.0 | 20.0 | 0.00 | 0.32 | 0.01 | 81 | 1015.5 |
| 20260903175222 | 77 | 87 | 10.0 | 20.0 | 0.00 | 0.41 | 0.01 | 82 | 1015.5 |
| 20260903174452 | 77 | 76 | 10.0 | 24.0 | 0.00 | 0.44 | 0.01 | 85 | 1015.5 |
| 20260903173952 | 76 | 68 | 7.0 | 24.0 | 0.00 | 0.45 | 0.01 | 85 | 1015.4 |
| 20260903173723 | 76 | 91 | 15.0 | 21.0 | 0.00 | 0.46 | 0.01 | 85 | 1015.7 |
| 20260903172951 | 77 | 98 | 11.0 | 21.0 | 0.00 | 0.47 | 0.01 | 85 | 1015.5 |
| 20260903172439 | 78 | 63 | 11.0 | 21.0 | 0.00 | 0.47 | 0.01 | 84 | 1015.5 |
| 20260903171939 | 77 | 77 | 9.0 | 19.0 | 0.00 | 0.47 | 0.01 | 83 | 1015.3 |
| 20260903171440 | 76 | 96 | 3.0 | 16.0 | 0.00 | 0.47 | 0.01 | 84 | 1015.4 |
| 20260903170940 | 76 | 135 | 5.0 | 16.0 | 0.01 | 0.47 | 0.01 | 85 | 1015.2 |
| 20260903170711 | 76 | 64 | 8.0 | 23.0 | 0.01 | 0.47 | 0.01 | 86 | 1015.3 |
| 20260903165940 | 76 | 128 | 12.0 | 23.0 | 0.01 | 0.47 | 0.01 | 86 | 1015.3 |
| 20260903165440 | 76 | 132 | 10.0 | 21.0 | 0.01 | 0.47 | 0.01 | 85 | 1015.0 |
| 20260903164928 | 76 | 112 | 4.0 | 20.0 | 0.01 | 0.47 | 0.01 | 85 | 1014.9 |
| 20260903164427 | 76 | 110 | 9.0 | 20.0 | 0.01 | 0.47 | 0.01 | 86 | 1014.9 |
| 20260903163927 | 75 | 116 | 13.0 | 17.0 | 0.01 | 0.47 | 0.01 | 87 | 1015.1 |
| 20260903163427 | 75 | 97 | 5.0 | 17.0 | 0.01 | 0.47 | 0.01 | 88 | 1014.9 |
| 20260903163159 | 75 | 93 | 7.0 | 15.0 | 0.01 | 0.47 | 0.01 | 88 | 1015.3 |
| 20260903162428 | 75 | 99 | 4.0 | 15.0 | 0.01 | 0.47 | 0.01 | 87 | 1015.2 |
| 20260903161928 | 76 | 126 | 6.0 | 17.0 | 0.01 | 0.47 | 0.01 | 86 | 1015.1 |
| 20260903161658 | 76 | 89 | 11.0 | 19.0 | 0.00 | 0.46 | 0.01 | 84 | 1015.1 |
| 20260903160927 | 77 | 115 | 5.0 | 19.0 | 0.00 | 0.46 | 0.00 | 83 | 1015.0 |
| 20260903160428 | 77 | 92 | 7.0 | 19.0 | 0.00 | 0.46 | 0.00 | 82 | 1014.9 |
| 20260903155927 | 77 | 124 | 12.0 | 17.0 | 0.00 | 0.46 | 0.00 | 82 | 1015.0 |
| 20260903155427 | 77 | 49 | 10.0 | 19.0 | 0.00 | 0.46 | 0.00 | 82 | 1015.0 |
| 20260903154928 | 77 | 89 | 13.0 | 19.0 | 0.00 | 0.46 | 0.00 | 81 | 1014.7 |
| 20260903154428 | 77 | 50 | 8.0 | 19.0 | 0.00 | 0.46 | 0.00 | 81 | 1014.5 |
| 20260903153928 | 77 | 135 | 10.0 | 19.0 | 0.00 | 0.46 | 0.00 | 82 | 1014.6 |
| 20260903153658 | 76 | 125 | 7.0 | 16.0 | 0.00 | 0.46 | 0.00 | 84 | 1014.8 |
| 20260903152928 | 76 | 74 | 9.0 | 21.0 | 0.00 | 0.47 | 0.00 | 85 | 1014.9 |
| 20260903152428 | 76 | 50 | 8.0 | 21.0 | 0.00 | 0.49 | 0.00 | 86 | 1015.0 |
| 20260903151928 | 76 | 86 | 11.0 | 24.0 | 0.00 | 0.50 | 0.00 | 86 | 1014.8 |
| 20260903151659 | 77 | 57 | 11.0 | 25.0 | 0.00 | 0.50 | 0.00 | 86 | 1014.9 |
| 20260903150929 | 77 | 69 | 14.0 | 25.0 | 0.00 | 0.50 | 0.00 | 84 | 1014.9 |
| 20260903150428 | 77 | 56 | 11.0 | 23.0 | 0.00 | 0.50 | 0.00 | 85 | 1014.6 |
| 20260903145927 | 76 | 68 | 10.0 | 20.0 | 0.00 | 0.50 | 0.00 | 85 | 1014.7 |
| 20260903145427 | 76 | 37 | 11.0 | 16.0 | 0.00 | 0.50 | 0.00 | 85 | 1014.7 |
| 20260903144928 | 76 | 77 | 7.0 | 25.0 | 0.00 | 0.50 | 0.00 | 84 | 1014.6 |
| 20260903144428 | 76 | 114 | 7.0 | 31.0 | 0.00 | 0.50 | 0.00 | 82 | 1015.0 |
| 20260903143928 | 77 | 76 | 11.0 | 31.0 | 0.00 | 0.49 | 0.00 | 82 | 1014.6 |
| 20260903143427 | 78 | 90 | 12.0 | 20.0 | 0.00 | 0.50 | 0.00 | 80 | 1014.8 |
| 20260903142928 | 78 | 70 | 11.0 | 23.0 | 0.00 | 0.50 | 0.00 | 80 | 1014.6 |
| 20260903142428 | 78 | 54 | 11.0 | 23.0 | 0.00 | 0.50 | 0.00 | 80 | 1014.5 |
| 20260903141929 | 78 | 94 | 9.0 | 19.0 | 0.00 | 0.50 | 0.00 | 81 | 1014.6 |
| 20260903141428 | 78 | 45 | 7.0 | 19.0 | 0.00 | 0.50 | 0.00 | 80 | 1014.4 |
| 20260903141201 | 78 | 71 | 6.0 | 19.0 | 0.00 | 0.51 | 0.00 | 81 | 1014.6 |
| 20260903140430 | 78 | 96 | 12.0 | 20.0 | 0.00 | 0.51 | 0.00 | 82 | 1014.5 |
| 20260903135928 | 78 | 85 | 13.0 | 20.0 | 0.00 | 0.51 | 0.00 | 82 | 1014.6 |
| 20260903135427 | 78 | 81 | 9.0 | 23.0 | 0.00 | 0.51 | 0.00 | 82 | 1014.4 |
| 20260903134929 | 78 | 59 | 15.0 | 20.0 | 0.00 | 0.51 | 0.00 | 82 | 1014.6 |
| 20260903134429 | 78 | 68 | 7.0 | 17.0 | 0.00 | 0.51 | 0.00 | 82 | 1014.6 |
| 20260903133928 | 78 | 93 | 8.0 | 23.0 | 0.00 | 0.51 | 0.00 | 82 | 1014.6 |
| 20260903133428 | 78 | 89 | 8.0 | 23.0 | 0.00 | 0.51 | 0.00 | 81 | 1014.4 |
| 20260903133158 | 78 | 126 | 11.0 | 20.0 | 0.00 | 0.51 | 0.00 | 80 | 1014.7 |
| 20260903132429 | 78 | 80 | 11.0 | 23.0 | 0.00 | 0.51 | 0.00 | 80 | 1014.6 |
| 20260903131928 | 78 | 85 | 13.0 | 23.0 | 0.00 | 0.51 | 0.00 | 80 | 1014.5 |
| 20260903131427 | 78 | 101 | 7.0 | 20.0 | 0.00 | 0.51 | 0.00 | 82 | 1014.4 |
| 20260903130927 | 78 | 87 | 12.0 | 20.0 | 0.00 | 0.51 | 0.00 | 81 | 1014.6 |
| 20260903130428 | 78 | 114 | 12.0 | 26.0 | 0.00 | 0.51 | 0.00 | 81 | 1014.7 |
| 20260903125928 | 78 | 66 | 7.0 | 26.0 | 0.00 | 0.51 | 0.00 | 82 | 1014.6 |
| 20260903125428 | 78 | 115 | 4.0 | 26.0 | 0.00 | 0.51 | 0.00 | 83 | 1014.5 |
| 20260903125159 | 78 | 126 | 10.0 | 26.0 | 0.00 | 0.51 | 0.00 | 82 | 1014.5 |
| 20260903124428 | 78 | 127 | 4.0 | 20.0 | 0.00 | 0.51 | 0.00 | 82 | 1014.6 |
| 20260903123929 | 78 | 92 | 12.0 | 20.0 | 0.00 | 0.51 | 0.00 | 82 | 1014.3 |
| 20260903123428 | 78 | 80 | 11.0 | 17.0 | 0.00 | 0.51 | 0.00 | 83 | 1014.4 |
| 20260903122927 | 78 | 93 | 8.0 | 20.0 | 0.00 | 0.51 | 0.00 | 83 | 1014.7 |
| 20260903122658 | 78 | 85 | 11.0 | 20.0 | 0.00 | 0.51 | 0.00 | 82 | 1014.5 |
| 20260903121927 | 78 | 105 | 12.0 | 19.0 | 0.00 | 0.51 | 0.00 | 80 | 1014.7 |
| 20260903121427 | 78 | 114 | 8.0 | 23.0 | 0.00 | 0.51 | 0.00 | 80 | 1014.7 |
| 20260903121158 | 78 | 95 | 8.0 | 23.0 | 0.00 | 0.51 | 0.00 | 81 | 1014.8 |
| 20260903120416 | 78 | 96 | 8.0 | 21.0 | 0.00 | 0.51 | 0.00 | 82 | 1014.9 |
| 20260903115916 | 78 | 86 | 8.0 | 23.0 | 0.00 | 0.51 | 0.00 | 82 | 1015.1 |
| 20260903115646 | 78 | 105 | 13.0 | 23.0 | 0.00 | 0.51 | 0.00 | 82 | 1014.9 |
| 20260903114916 | 78 | 87 | 8.0 | 20.0 | 0.00 | 0.51 | 0.00 | 82 | 1015.0 |
| 20260903114416 | 78 | 116 | 9.0 | 21.0 | 0.00 | 0.51 | 0.00 | 82 | 1014.8 |
| 20260903113915 | 78 | 61 | 10.0 | 21.0 | 0.00 | 0.51 | 0.00 | 81 | 1014.8 |
| 20260903113646 | 78 | 80 | 15.0 | 25.0 | 0.00 | 0.51 | 0.00 | 81 | 1014.7 |
| 20260903112915 | 78 | 125 | 14.0 | 25.0 | 0.00 | 0.51 | 0.00 | 81 | 1015.0 |
| 20260903112416 | 78 | 95 | 8.0 | 19.0 | 0.00 | 0.51 | 0.00 | 81 | 1015.2 |
| 20260903111916 | 78 | 43 | 8.0 | 23.0 | 0.00 | 0.51 | 0.00 | 82 | 1015.2 |
| 20260903111416 | 78 | 94 | 11.0 | 25.0 | 0.00 | 0.51 | 0.00 | 82 | 1015.1 |
| 20260903110916 | 78 | 93 | 16.0 | 25.0 | 0.00 | 0.51 | 0.00 | 81 | 1015.2 |
| 20260903110415 | 78 | 77 | 10.0 | 23.0 | 0.00 | 0.51 | 0.00 | 82 | 1015.2 |
| 20260903105915 | 78 | 107 | 15.0 | 23.0 | 0.00 | 0.51 | 0.00 | 81 | 1015.3 |
| 20260903105647 | 78 | 139 | 12.0 | 23.0 | 0.00 | 0.51 | 0.00 | 81 | 1015.4 |
| 20260903104916 | 78 | 90 | 9.0 | 24.0 | 0.00 | 0.51 | 0.00 | 81 | 1015.3 |
| 20260903104416 | 77 | 119 | 13.0 | 24.0 | 0.00 | 0.51 | 0.00 | 81 | 1015.5 |
| 20260903103916 | 77 | 108 | 9.0 | 21.0 | 0.00 | 0.51 | 0.00 | 83 | 1015.3 |
| 20260903103416 | 77 | 122 | 8.0 | 21.0 | 0.00 | 0.51 | 0.00 | 84 | 1015.7 |
| 20260903103147 | 77 | 129 | 6.0 | 20.0 | 0.00 | 0.51 | 0.00 | 83 | 1015.5 |
| 20260903102415 | 77 | 106 | 8.0 | 17.0 | 0.00 | 0.51 | 0.00 | 83 | 1015.2 |
| 20260903101915 | 77 | 114 | 6.0 | 20.0 | 0.00 | 0.51 | 0.00 | 82 | 1015.6 |
| 20260903101416 | 78 | 111 | 10.0 | 24.0 | 0.00 | 0.51 | 0.00 | 82 | 1015.4 |
| 20260903100915 | 78 | 83 | 15.0 | 24.0 | 0.00 | 0.51 | 0.00 | 82 | 1015.7 |
| 20260903100416 | 78 | 106 | 6.0 | 21.0 | 0.00 | 0.51 | 0.00 | 82 | 1015.8 |
| 20260903100146 | 78 | 121 | 12.0 | 19.0 | 0.00 | 0.51 | 0.51 | 82 | 1015.7 |
| 20260903095415 | 78 | 108 | 5.0 | 24.0 | 0.00 | 0.51 | 0.51 | 81 | 1015.6 |
| 20260903094916 | 78 | 69 | 11.0 | 24.0 | 0.00 | 0.51 | 0.51 | 80 | 1015.5 |
| 20260903094416 | 78 | 62 | 9.0 | 20.0 | 0.00 | 0.51 | 0.51 | 79 | 1015.7 |
| 20260903093915 | 78 | 119 | 7.0 | 20.0 | 0.00 | 0.51 | 0.51 | 81 | 1015.5 |
| 20260903093647 | 78 | 93 | 7.0 | 23.0 | 0.00 | 0.51 | 0.51 | 81 | 1015.8 |
| 20260903092916 | 78 | 75 | 15.0 | 23.0 | 0.00 | 0.51 | 0.51 | 82 | 1015.9 |
| 20260903092415 | 78 | 86 | 9.0 | 20.0 | 0.00 | 0.51 | 0.51 | 81 | 1016.0 |
| 20260903091916 | 78 | 94 | 11.0 | 23.0 | 0.00 | 0.51 | 0.51 | 81 | 1015.7 |
| 20260903091646 | 78 | 109 | 12.0 | 29.0 | 0.00 | 0.51 | 0.51 | 81 | 1016.2 |
| 20260903090915 | 78 | 99 | 6.0 | 29.0 | 0.00 | 0.51 | 0.51 | 81 | 1016.1 |
| 20260903090416 | 78 | 112 | 8.0 | 24.0 | 0.00 | 0.51 | 0.51 | 80 | 1016.3 |
| 20260903085915 | 78 | 105 | 12.0 | 25.0 | 0.00 | 0.51 | 0.51 | 81 | 1016.4 |
| 20260903085415 | 78 | 111 | 12.0 | 25.0 | 0.00 | 0.51 | 0.51 | 81 | 1016.3 |
| 20260903084915 | 78 | 112 | 13.0 | 21.0 | 0.00 | 0.51 | 0.51 | 81 | 1016.4 |
| 20260903084415 | 78 | 108 | 8.0 | 25.0 | 0.00 | 0.51 | 0.51 | 80 | 1016.3 |
| 20260903083921 | 78 | 129 | 6.0 | 16.0 | 0.00 | 0.51 | 0.51 | 81 | 1016.1 |
| 20260903083915 | 78 | 61 | 12.0 | 25.0 | 0.00 | 0.51 | 0.51 | 80 | 1016.3 |
| 20260903082916 | 78 | 123 | 8.0 | 25.0 | 0.00 | 0.51 | 0.51 | 81 | 1016.3 |
| 20260903082418 | 78 | 84 | 10.0 | 21.0 | 0.00 | 0.51 | 0.51 | 80 | 1016.1 |
| 20260903081915 | 78 | 114 | 9.0 | 24.0 | 0.00 | 0.51 | 0.51 | 81 | 1016.1 |
| 20260903081416 | 78 | 70 | 14.0 | 20.0 | 0.00 | 0.51 | 0.51 | 81 | 1016.6 |
| 20260903080916 | 78 | 105 | 11.0 | 20.0 | 0.00 | 0.51 | 0.51 | 82 | 1016.2 |
| 20260903080415 | 78 | 71 | 9.0 | 20.0 | 0.00 | 0.51 | 0.51 | 81 | 1016.2 |
| 20260903075916 | 78 | 93 | 9.0 | 25.0 | 0.00 | 0.51 | 0.51 | 81 | 1016.1 |
| 20260903075416 | 78 | 69 | 9.0 | 25.0 | 0.00 | 0.51 | 0.51 | 82 | 1016.1 |
| 20260903074918 | 78 | 86 | 9.0 | 23.0 | 0.00 | 0.51 | 0.51 | 82 | 1016.1 |
| 20260903074415 | 78 | 108 | 4.0 | 23.0 | 0.00 | 0.51 | 0.51 | 82 | 1016.0 |
| 20260903074144 | 79 | 98 | 8.0 | 21.0 | 0.00 | 0.51 | 0.51 | 82 | 1016.2 |
| 20260903073411 | 79 | 115 | 12.0 | 21.0 | 0.00 | 0.51 | 0.51 | 81 | 1015.9 |
| 20260903072907 | 79 | 131 | 7.0 | 21.0 | 0.00 | 0.51 | 0.51 | 81 | 1016.2 |
| 20260903072407 | 79 | 103 | 9.0 | 23.0 | 0.00 | 0.51 | 0.51 | 81 | 1016.2 |
| 20260903071907 | 79 | 95 | 11.0 | 23.0 | 0.00 | 0.51 | 0.51 | 81 | 1016.1 |
| 20260903071405 | 79 | 105 | 12.0 | 26.0 | 0.00 | 0.51 | 0.51 | 81 | 1016.0 |
| 20260903070905 | 79 | 96 | 11.0 | 26.0 | 0.00 | 0.51 | 0.51 | 80 | 1015.9 |
| 20260903070632 | 79 | 80 | 11.0 | 19.0 | 0.00 | 0.51 | 0.51 | 79 | 1015.8 |
| 20260903065900 | 79 | 89 | 10.0 | 17.0 | 0.00 | 0.51 | 0.51 | 80 | 1015.9 |
| 20260903065400 | 79 | 80 | 11.0 | 21.0 | 0.00 | 0.51 | 0.51 | 79 | 1015.7 |
| 20260903064859 | 79 | 114 | 7.0 | 21.0 | 0.00 | 0.51 | 0.51 | 79 | 1015.8 |
| 20260903064356 | 79 | 65 | 9.0 | 20.0 | 0.00 | 0.51 | 0.51 | 80 | 1016.0 |
| 20260903063856 | 79 | 103 | 9.0 | 20.0 | 0.00 | 0.51 | 0.51 | 80 | 1015.8 |
| 20260903063354 | 79 | 82 | 11.0 | 23.0 | 0.00 | 0.51 | 0.51 | 79 | 1015.7 |
| 20260903062851 | 79 | 116 | 9.0 | 23.0 | 0.00 | 0.51 | 0.51 | 79 | 1015.8 |
| 20260903062352 | 79 | 100 | 11.0 | 20.0 | 0.00 | 0.51 | 0.51 | 79 | 1015.6 |
| 20260903061849 | 79 | 60 | 10.0 | 25.0 | 0.00 | 0.51 | 0.51 | 79 | 1015.4 |
| 20260903061619 | 79 | 111 | 7.0 | 25.0 | 0.00 | 0.51 | 0.51 | 79 | 1015.6 |
| 20260903060848 | 79 | 84 | 10.0 | 20.0 | 0.00 | 0.51 | 0.51 | 79 | 1015.4 |
| 20260903060618 | 79 | 69 | 11.0 | 21.0 | 0.00 | 0.51 | 0.51 | 79 | 1015.5 |
| 20260903055850 | 79 | 115 | 9.0 | 25.0 | 0.00 | 0.51 | 0.51 | 79 | 1015.3 |
| 20260903055623 | 79 | 140 | 10.0 | 16.0 | 0.00 | 0.51 | 0.51 | 79 | 1015.6 |
| 20260903055346 | 79 | 122 | 5.0 | 25.0 | 0.00 | 0.51 | 0.51 | 79 | 1015.3 |
| 20260903054615 | 79 | 130 | 10.0 | 20.0 | 0.00 | 0.51 | 0.51 | 79 | 1015.5 |
| 20260903053844 | 79 | 96 | 13.0 | 20.0 | 0.00 | 0.51 | 0.51 | 79 | 1015.3 |
| 20260903053344 | 79 | 96 | 7.0 | 19.0 | 0.00 | 0.51 | 0.51 | 79 | 1015.3 |
| 20260903052831 | 79 | 111 | 10.0 | 20.0 | 0.00 | 0.51 | 0.51 | 79 | 1015.1 |
| 20260903052331 | 79 | 88 | 14.0 | 21.0 | 0.00 | 0.51 | 0.51 | 79 | 1015.1 |
| 20260903052103 | 79 | 106 | 14.0 | 21.0 | 0.00 | 0.51 | 0.51 | 79 | 1014.9 |
| 20260903051331 | 79 | 122 | 9.0 | 17.0 | 0.00 | 0.51 | 0.51 | 80 | 1014.9 |
| 20260903050831 | 79 | 117 | 6.0 | 17.0 | 0.00 | 0.51 | 0.51 | 81 | 1014.7 |
| 20260903050336 | 79 | 82 | 3.0 | 19.0 | 0.00 | 0.51 | 0.51 | 80 | 1014.6 |
| 20260903050330 | 79 | 115 | 11.0 | 17.0 | 0.00 | 0.51 | 0.51 | 81 | 1014.6 |
| 20260903045331 | 79 | 84 | 9.0 | 19.0 | 0.00 | 0.51 | 0.51 | 80 | 1014.6 |
| 20260903044831 | 79 | 127 | 8.0 | 19.0 | 0.00 | 0.51 | 0.51 | 79 | 1014.4 |
| 20260903044331 | 80 | 51 | 6.0 | 19.0 | 0.00 | 0.51 | 0.51 | 79 | 1014.7 |
| 20260903043831 | 80 | 94 | 7.0 | 17.0 | 0.00 | 0.51 | 0.51 | 78 | 1014.6 |
| 20260903043331 | 80 | 111 | 7.0 | 17.0 | 0.00 | 0.51 | 0.51 | 78 | 1014.6 |
| 20260903042831 | 80 | 106 | 4.0 | 17.0 | 0.00 | 0.51 | 0.51 | 78 | 1014.4 |
| 20260903042331 | 80 | 87 | 9.0 | 17.0 | 0.00 | 0.51 | 0.51 | 77 | 1014.2 |
| 20260903042108 | 80 | 105 | 9.0 | 17.0 | 0.00 | 0.51 | 0.51 | 77 | 1014.5 |
| 20260903041831 | 80 | 143 | 9.0 | 17.0 | 0.00 | 0.51 | 0.51 | 77 | 1014.4 |
| 20260903040832 | 80 | 114 | 9.0 | 20.0 | 0.00 | 0.51 | 0.51 | 78 | 1014.4 |
| 20260903040331 | 80 | 115 | 4.0 | 23.0 | 0.00 | 0.51 | 0.51 | 77 | 1014.3 |
| 20260903035830 | 80 | 105 | 6.0 | 23.0 | 0.00 | 0.51 | 0.51 | 77 | 1014.6 |
| 20260903035330 | 81 | 117 | 11.0 | 19.0 | 0.00 | 0.51 | 0.51 | 77 | 1014.4 |
| 20260903034830 | 81 | 105 | 9.0 | 19.0 | 0.00 | 0.51 | 0.51 | 76 | 1014.3 |
| 20260903034330 | 81 | 129 | 11.0 | 20.0 | 0.00 | 0.51 | 0.51 | 75 | 1014.1 |
| 20260903033832 | 81 | 44 | 8.0 | 21.0 | 0.00 | 0.51 | 0.51 | 75 | 1014.2 |
| 20260903033549 | 81 | 80 | 11.0 | 21.0 | 0.00 | 0.51 | 0.51 | 75 | 1013.8 |
| 20260903032818 | 81 | 90 | 12.0 | 19.0 | 0.00 | 0.51 | 0.51 | 76 | 1014.0 |
| 20260903032318 | 81 | 65 | 10.0 | 19.0 | 0.00 | 0.51 | 0.51 | 76 | 1014.1 |
| 20260903031818 | 81 | 65 | 7.0 | 19.0 | 0.00 | 0.51 | 0.51 | 77 | 1013.9 |
| 20260903031319 | 82 | 93 | 11.0 | 20.0 | 0.00 | 0.51 | 0.51 | 76 | 1014.1 |
| 20260903030819 | 82 | 86 | 11.0 | 20.0 | 0.00 | 0.51 | 0.51 | 75 | 1014.1 |
| 20260903030319 | 82 | 124 | 6.0 | 17.0 | 0.00 | 0.51 | 0.51 | 75 | 1014.1 |
| 20260903025819 | 82 | 92 | 4.0 | 17.0 | 0.00 | 0.51 | 0.51 | 73 | 1014.0 |
| 20260903025318 | 82 | 102 | 8.0 | 17.0 | 0.00 | 0.51 | 0.51 | 74 | 1013.9 |
| 20260903024818 | 82 | 110 | 10.0 | 19.0 | 0.00 | 0.51 | 0.51 | 73 | 1013.8 |
| 20260903024318 | 82 | 87 | 10.0 | 20.0 | 0.00 | 0.51 | 0.51 | 73 | 1014.0 |
| 20260903023818 | 83 | 117 | 11.0 | 20.0 | 0.00 | 0.51 | 0.51 | 73 | 1014.2 |
| 20260903023319 | 82 | 104 | 4.0 | 16.0 | 0.00 | 0.51 | 0.51 | 75 | 1014.0 |
| 20260903022819 | 82 | 90 | 7.0 | 20.0 | 0.00 | 0.51 | 0.51 | 75 | 1014.2 |
| 20260903022318 | 82 | 75 | 13.0 | 20.0 | 0.00 | 0.51 | 0.51 | 76 | 1014.1 |
| 20260903022050 | 83 | 91 | 12.0 | 17.0 | 0.00 | 0.51 | 0.51 | 75 | 1014.0 |
| 20260903021319 | 82 | 83 | 4.0 | 17.0 | 0.00 | 0.51 | 0.51 | 76 | 1014.1 |
| 20260903020819 | 82 | 119 | 9.0 | 19.0 | 0.00 | 0.51 | 0.51 | 76 | 1013.7 |
| 20260903020318 | 83 | 106 | 8.0 | 21.0 | 0.00 | 0.51 | 0.51 | 75 | 1014.1 |
| 20260903015818 | 83 | 76 | 9.0 | 21.0 | 0.00 | 0.51 | 0.51 | 75 | 1013.9 |
| 20260903015318 | 83 | 92 | 9.0 | 17.0 | 0.00 | 0.51 | 0.51 | 74 | 1014.2 |
| 20260903014819 | 83 | 115 | 9.0 | 15.0 | 0.00 | 0.51 | 0.51 | 74 | 1014.0 |
| 20260903014319 | 83 | 111 | 6.0 | 16.0 | 0.00 | 0.51 | 0.51 | 74 | 1014.0 |
| 20260903013819 | 83 | 90 | 11.0 | 19.0 | 0.00 | 0.51 | 0.51 | 74 | 1014.2 |
| 20260903013319 | 83 | 102 | 6.0 | 19.0 | 0.00 | 0.51 | 0.51 | 74 | 1013.9 |
| 20260903012818 | 83 | 71 | 9.0 | 17.0 | 0.00 | 0.51 | 0.51 | 73 | 1014.0 |
| 20260903012319 | 83 | 104 | 12.0 | 16.0 | 0.00 | 0.51 | 0.51 | 74 | 1013.7 |
| 20260903011818 | 84 | 111 | 5.0 | 20.0 | 0.00 | 0.51 | 0.51 | 72 | 1013.9 |
| 20260903011318 | 84 | 110 | 6.0 | 20.0 | 0.00 | 0.51 | 0.51 | 73 | 1013.8 |
| 20260903010820 | 84 | 105 | 9.0 | 19.0 | 0.00 | 0.51 | 0.51 | 73 | 1014.1 |
| 20260903010319 | 84 | 90 | 9.0 | 17.0 | 0.00 | 0.51 | 0.51 | 74 | 1014.1 |
| 20260903005818 | 84 | 64 | 7.0 | 20.0 | 0.00 | 0.51 | 0.51 | 73 | 1014.0 |
| 20260903005319 | 84 | 113 | 15.0 | 20.0 | 0.00 | 0.51 | 0.51 | 73 | 1014.1 |
| 20260903004818 | 84 | 103 | 11.0 | 20.0 | 0.00 | 0.51 | 0.51 | 73 | 1014.1 |
| 20260903004319 | 84 | 67 | 11.0 | 20.0 | 0.00 | 0.51 | 0.51 | 74 | 1014.0 |
| 20260903004050 | 84 | 101 | 13.0 | 19.0 | 0.00 | 0.51 | 0.51 | 74 | 1013.9 |
| 20260903003318 | 84 | 102 | 5.0 | 20.0 | 0.00 | 0.51 | 0.51 | 75 | 1013.9 |
| 20260903003049 | 83 | 87 | 11.0 | 20.0 | 0.00 | 0.51 | 0.51 | 74 | 1014.1 |
| 20260903002321 | 84 | 75 | 6.0 | 21.0 | 0.00 | 0.51 | 0.51 | 75 | 1014.0 |
| 20260903001819 | 84 | 77 | 13.0 | 21.0 | 0.00 | 0.51 | 0.51 | 75 | 1014.3 |
| 20260903001319 | 84 | 51 | 7.0 | 19.0 | 0.00 | 0.51 | 0.51 | 76 | 1014.1 |
| 20260903001049 | 83 | 103 | 7.0 | 21.0 | 0.00 | 0.51 | 0.51 | 76 | 1014.2 |
| 20260903000318 | 83 | 70 | 10.0 | 21.0 | 0.00 | 0.51 | 0.51 | 77 | 1014.3 |
| 20260902235817 | 83 | 81 | 10.0 | 21.0 | 0.00 | 0.51 | 0.51 | 77 | 1014.4 |
| 20260902235319 | 83 | 51 | 9.0 | 21.0 | 0.00 | 0.51 | 0.51 | 76 | 1014.6 |
| 20260902234817 | 83 | 78 | 12.0 | 21.0 | 0.00 | 0.51 | 0.51 | 76 | 1014.5 |
| 20260902234317 | 84 | 72 | 6.0 | 19.0 | 0.00 | 0.51 | 0.51 | 77 | 1014.5 |
| 20260902233817 | 84 | 132 | 7.0 | 19.0 | 0.00 | 0.51 | 0.51 | 76 | 1014.5 |
| 20260902233317 | 84 | 108 | 10.0 | 21.0 | 0.00 | 0.51 | 0.51 | 77 | 1014.8 |
| 20260902232817 | 84 | 80 | 15.0 | 21.0 | 0.00 | 0.51 | 0.51 | 75 | 1014.7 |
| 20260902232548 | 84 | 73 | 6.0 | 23.0 | 0.00 | 0.51 | 0.51 | 75 | 1014.8 |
| 20260902231817 | 84 | 114 | 8.0 | 23.0 | 0.00 | 0.51 | 0.51 | 75 | 1014.7 |
| 20260902231317 | 84 | 84 | 10.0 | 20.0 | 0.00 | 0.51 | 0.51 | 76 | 1014.9 |
| 20260902230817 | 84 | 83 | 6.0 | 21.0 | 0.00 | 0.51 | 0.51 | 77 | 1015.0 |
| 20260902230317 | 84 | 64 | 13.0 | 21.0 | 0.00 | 0.51 | 0.51 | 75 | 1014.9 |
| 20260902225816 | 83 | 88 | 9.0 | 17.0 | 0.00 | 0.51 | 0.51 | 77 | 1014.9 |
| 20260902225316 | 83 | 106 | 11.0 | 17.0 | 0.00 | 0.51 | 0.51 | 76 | 1014.7 |
| 20260902224816 | 84 | 69 | 15.0 | 19.0 | 0.00 | 0.51 | 0.51 | 77 | 1014.8 |
| 20260902224316 | 83 | 93 | 14.0 | 19.0 | 0.00 | 0.51 | 0.51 | 76 | 1015.1 |
| 20260902223817 | 83 | 79 | 11.0 | 19.0 | 0.00 | 0.51 | 0.51 | 76 | 1015.2 |
| 20260902223316 | 83 | 139 | 12.0 | 19.0 | 0.00 | 0.51 | 0.51 | 77 | 1015.1 |
| 20260902222816 | 84 | 119 | 5.0 | 23.0 | 0.00 | 0.51 | 0.51 | 77 | 1015.3 |
| 20260902222317 | 84 | 100 | 8.0 | 23.0 | 0.00 | 0.51 | 0.51 | 78 | 1015.2 |
| 20260902221817 | 84 | 75 | 6.0 | 19.0 | 0.00 | 0.51 | 0.51 | 79 | 1015.2 |
| 20260902221317 | 84 | 94 | 10.0 | 21.0 | 0.00 | 0.51 | 0.51 | 77 | 1015.4 |
| 20260902220819 | 84 | 92 | 8.0 | 20.0 | 0.00 | 0.51 | 0.51 | 78 | 1015.1 |
| 20260902220305 | 84 | 114 | 6.0 | 20.0 | 0.00 | 0.51 | 0.51 | 79 | 1015.3 |
| 20260902215804 | 83 | 91 | 15.0 | 17.0 | 0.00 | 0.51 | 0.51 | 79 | 1015.5 |
| 20260902215306 | 83 | 110 | 12.0 | 17.0 | 0.00 | 0.51 | 0.51 | 80 | 1015.3 |
| 20260902214805 | 83 | 89 | 10.0 | 20.0 | 0.00 | 0.51 | 0.51 | 80 | 1015.4 |
| 20260902214305 | 83 | 50 | 12.0 | 20.0 | 0.00 | 0.51 | 0.51 | 80 | 1015.1 |
| 20260902213804 | 83 | 122 | 12.0 | 19.0 | 0.00 | 0.51 | 0.51 | 80 | 1015.3 |
| 20260902213535 | 83 | 88 | 12.0 | 16.0 | 0.00 | 0.51 | 0.51 | 81 | 1015.3 |
| 20260902212805 | 83 | 66 | 6.0 | 19.0 | 0.00 | 0.51 | 0.51 | 82 | 1015.2 |
| 20260902212253 | 82 | 102 | 6.0 | 19.0 | 0.00 | 0.51 | 0.51 | 82 | 1015.2 |
| 20260902212023 | 82 | 93 | 13.0 | 19.0 | 0.00 | 0.51 | 0.51 | 83 | 1015.2 |
| 20260902211254 | 81 | 140 | 11.0 | 16.0 | 0.00 | 0.51 | 0.51 | 84 | 1015.2 |
| 20260902211023 | 81 | 64 | 8.0 | 15.0 | 0.00 | 0.51 | 0.51 | 85 | 1015.2 |
| 20260902210253 | 80 | 72 | 8.0 | 19.0 | 0.00 | 0.51 | 0.51 | 85 | 1015.3 |
| 20260902205752 | 80 | 117 | 10.0 | 19.0 | 0.00 | 0.51 | 0.51 | 86 | 1015.5 |
| 20260902205252 | 80 | 107 | 9.0 | 19.0 | 0.00 | 0.51 | 0.51 | 86 | 1015.3 |
| 20260902204740 | 80 | 113 | 5.0 | 14.0 | 0.01 | 0.51 | 0.51 | 87 | 1015.4 |
| 20260902204500 | 80 | 106 | 8.0 | 14.0 | 0.01 | 0.51 | 0.51 | 87 | 1015.7 |
| 20260902203728 | 80 | 89 | 9.0 | 13.0 | 0.01 | 0.51 | 0.51 | 87 | 1015.5 |
| 20260902203235 | 79 | 107 | 8.0 | 14.0 | 0.01 | 0.51 | 0.51 | 88 | 1015.6 |
| 20260902203229 | 79 | 148 | 4.0 | 15.0 | 0.01 | 0.51 | 0.51 | 88 | 1015.5 |
| 20260902202500 | 79 | 102 | 7.0 | 14.0 | 0.01 | 0.51 | 0.51 | 88 | 1015.8 |
| 20260902201730 | 78 | 104 | 6.0 | 16.0 | 0.01 | 0.51 | 0.51 | 89 | 1015.6 |
| 20260902201229 | 78 | 93 | 4.0 | 17.0 | 0.01 | 0.51 | 0.51 | 89 | 1015.6 |
| 20260902200729 | 77 | 64 | 7.0 | 19.0 | 0.01 | 0.51 | 0.51 | 89 | 1015.6 |
| 20260902200229 | 77 | 109 | 11.0 | 29.0 | 0.01 | 0.51 | 0.51 | 88 | 1015.6 |
| 20260902195728 | 77 | 105 | 11.0 | 29.0 | 0.01 | 0.51 | 0.51 | 89 | 1015.7 |
| 20260902195229 | 77 | 63 | 11.0 | 24.0 | 0.00 | 0.51 | 0.50 | 89 | 1015.9 |
| 20260902194729 | 77 | 115 | 6.0 | 20.0 | 0.00 | 0.50 | 0.50 | 90 | 1015.7 |
| 20260902194229 | 78 | 69 | 9.0 | 16.0 | 0.00 | 0.50 | 0.50 | 91 | 1015.6 |
| 20260902193729 | 78 | 98 | 3.0 | 16.0 | 0.00 | 0.50 | 0.50 | 91 | 1015.8 |
| 20260902193228 | 77 | 100 | 4.0 | 19.0 | 0.01 | 0.50 | 0.50 | 91 | 1015.8 |
| 20260902193001 | 77 | 95 | 10.0 | 23.0 | 0.02 | 0.50 | 0.50 | 91 | 1015.6 |
| 20260902192229 | 77 | 115 | 10.0 | 23.0 | 0.03 | 0.50 | 0.50 | 92 | 1015.7 |
| 20260902191729 | 76 | 67 | 9.0 | 23.0 | 0.07 | 0.50 | 0.50 | 92 | 1015.8 |
| 20260902191228 | 76 | 35 | 10.0 | 19.0 | 0.11 | 0.50 | 0.50 | 92 | 1015.6 |
| 20260902190729 | 76 | 44 | 8.0 | 20.0 | 0.15 | 0.50 | 0.50 | 92 | 1015.6 |
| 20260902190228 | 76 | 58 | 11.0 | 21.0 | 0.19 | 0.50 | 0.50 | 92 | 1015.8 |
| 20260902185728 | 76 | 62 | 11.0 | 24.0 | 0.26 | 0.50 | 0.50 | 92 | 1015.6 |
| 20260902185229 | 75 | 114 | 8.0 | 24.0 | 0.35 | 0.50 | 0.50 | 92 | 1015.4 |
| 20260902184730 | 75 | 87 | 13.0 | 20.0 | 0.42 | 0.50 | 0.50 | 92 | 1015.5 |
| 20260902184229 | 75 | 90 | 14.0 | 21.0 | 0.43 | 0.50 | 0.50 | 93 | 1015.6 |
| 20260902183729 | 75 | 77 | 10.0 | 25.0 | 0.44 | 0.50 | 0.50 | 93 | 1015.8 |
| 20260902183229 | 75 | 73 | 11.0 | 28.0 | 0.44 | 0.50 | 0.49 | 93 | 1015.6 |
| 20260902182728 | 75 | 59 | 11.0 | 28.0 | 0.44 | 0.49 | 0.48 | 93 | 1015.5 |
| 20260902182228 | 76 | 50 | 14.0 | 21.0 | 0.42 | 0.47 | 0.48 | 93 | 1015.7 |
| 20260902181728 | 76 | 87 | 8.0 | 19.0 | 0.39 | 0.44 | 0.44 | 93 | 1015.5 |
| 20260902181229 | 76 | 70 | 5.0 | 19.0 | 0.34 | 0.39 | 0.39 | 92 | 1015.9 |
| 20260902180729 | 76 | 55 | 6.0 | 33.0 | 0.30 | 0.35 | 0.35 | 92 | 1015.5 |